Location: Blackwall
(51.5097°N, 0.0016°W)
Time: 03:37:50
(UTC+00:00)

Cosmos 1825 Rocket - Pass Details

Date: 15 May 2026
Orbit: 598 x 622 km, 82.5° (Epoch: 8 June)

Event Time Altitude Azimuth Distance (km) Brightness Sun altitude
Rises 22:04:38 0° 345° (NNW) 2,873 8.6 -15.3°
Reaches altitude 10° 22:06:53 10° 341° (NNW) 1,968 7.5 -15.5°
Maximum altitude 22:11:07 52° 265° (W) 765 4.1 -15.8°
Enters shadow 22:13:51 20° 196° (SSW) 1,406 5.0 -16.0°
